{"data":{"norad_id":67029,"intl_designator":"2025-293AC","name":"STARLINK-36190","alt_names":[],"object_type":"PAYLOAD","status":"ACTIVE","operator":null,"country":"US","launch_date":"2025-12-10","launch_site_code":"AFWTR","launch_vehicle":null,"mission":null,"orbit_class":"UNKNOWN","rcs_meters":null,"size_class":null,"mass_kg":null,"dimensions":null,"purposes":["comms"],"wikipedia_slug":null,"has_3d_model":false,"image_url":null,"decayed_at":null,"tle_current":{"epoch":"2026-09-20T13:31:09.783552Z","epoch_age_seconds":76914,"freshness":"FRESH","line1":"1 67029U 25293AC  26263.56330768  .00003587  00000+0  30826-3 0  9996","line2":"2 67029  70.0012 323.2862 0003620 270.2459  89.8285 14.98329281 44074","mean_motion":14.98329281,"eccentricity":0.000362,"inclination_deg":70.0012,"raan_deg":323.2862,"arg_perigee_deg":270.2459,"mean_anomaly_deg":89.8285,"bstar":0.00030826,"rev_number":4407,"period_min":96.107045244349,"perigee_km":569.54214376208,"apogee_km":574.57408502491,"semimajor_km":6950.1951143935,"source":"CELESTRAK","updated_at":"2026-09-21T09:00:36.073982Z"}}}